Regional Weather Roundup
Issued by NWS

Home | Current Version | Previous Version | Text Only | Print | Product List | Glossary On
Versions: 1 2 3 4 5 6 7 8 9 10 11 12 13 14 15 16 17 18 19 20 21 22 23 24 25 26 27 28
000
ASCA42 TJSJ 212310
RWRPR
PUERTO RICO/U.S. VIRGIN ISLANDS HOURLY WEATHER ROUNDUP
NATIONAL WEATHER SERVICE SAN JUAN PR
700 PM AST SUN JAN 21 2018

PRZ001>002-007>008-010-220000-
PUERTO RICO

CITY           SKY/WX    TMP DP  RH WIND       PRES   REMARKS
SAN JUAN LMM   PTCLDY    79  72  78 E9        30.00S
AGUADILLA      PTCLDY    75  70  83 E12       30.00S
$$

VIZ001>002-220000-
U.S. VIRGIN ISLANDS

CITY           SKY/WX    TMP DP  RH WIND       PRES   REMARKS
CHARLOTTE AMA  CLEAR     79  70  73 E12       30.00R
CHRISTIANSTED  CLEAR     77  70  78 NE10      30.00R
$$

HOURLY WEATHER ROUNDUP FOR THE NEWS MEDIA

CITY           SKY/WX    TMP DP  RH WIND       PRES   REMARKS
ORLANDO        FAIR      72  59  63 SE9       30.16R
NEW YORK       MOCLDY    41  33  73 S7        30.18R
NEWARK         CLOUDY    50  33  52 W6        30.16R
CHICAGO        FOG       43  40  89 E6        29.90R VSB 1/4
HARTFORD       FAIR      37  29  72 SW3       30.16R
BOSTON         FAIR      46  29  51 SW6       30.16R
DALLAS         CLOUDY    70  62  76 S18G29    29.74R
PHILADELPHIA   FAIR      47  35  63 SW5       30.17S
LOS ANGELES    MOSUNNY   62  32  32 W9        30.25F
WASHINGTON DC  CLOUDY    57  42  57 SE6       30.12F



USA.gov is the U.S. government's official web portal to all federal, state and local government web resources and services.